{"data":{"norad_id":61701,"epoch":"2026-05-25T00:54:17.574624Z","epoch_age_seconds":81862,"freshness":"FRESH","line1":"1 61701U 24195Q   26145.03770341  .00000354  00000+0  21628-4 0  9993","line2":"2 61701  53.1603 159.8155 0001169  84.9972 275.1164 15.34387609 88889","mean_motion":15.34387609,"eccentricity":0.0001169,"inclination_deg":53.1603,"raan_deg":159.8155,"arg_perigee_deg":84.9972,"mean_anomaly_deg":275.1164,"bstar":2.1628e-5,"rev_number":8888,"period_min":93.848515952138,"perigee_km":461.94037058885,"apogee_km":463.53976764761,"semimajor_km":6840.8770691182,"source":"CELESTRAK","updated_at":"2026-05-25T13:38:19.442156Z"}}